User: anonymous   Login
Location: Unspecified
(0.0000°N, 0.0000°E)
Time: 06:47:35
(UTC+00:00)
Language:

AO-7 - Orbit

View from above orbital plane
View from above orbital plane
View from above satellite
View from above satellite

Ground track
Ground track

The orbit data is extracted from the following two-line orbital elements,

1  7530U 74089B   19167.15311671 -.00000051  00000-0 -35374-4 0  9996
2  7530 101.7435 134.8400 0012225 354.3318  72.7969 12.53638473 40205
Epoch (UTC): 16 June 2019 03:40:29
Eccentricity: 0.0012225
inclination: 101.7435°
perigee height: 1440 km
apogee height: 1459 km
right ascension of ascending node: 134.8400°
argument of perigee: 354.3318°
revolutions per day: 12.53638473
mean anomaly at epoch: 72.7969°
orbit number at epoch: 4020

The dashed part of the orbit path shows where the satellite is in the earth's shadow,  

DLR